Heroes on Hines
Skip Navigation Links
Results
Details
Mobile Results
05 October 2013
Click on runners highlighted nameview the runners video finish, their see detail results or link to the Race Photographers website.
Page 1 of 11 (515 items)
[1]234567891011
Pos
Race No
Fav
Share
Print
Name
Gun Time
Net Time
Category
Cat Pos
Age
Gender
Gen Pos
Team
City
Pace
12193John Emley19:02.819:01.5Overall141Male1 Canton6:08 min/m
22183William Caruso20:59.620:51.230-34132Male2Northville Fire DepartmentWyandotte6:43 min/m
32212Jason Learst21:10.321:09.220-24122Male3 Canton6:49 min/m
42021Chris Mikovich21:25.120:59.435-39138Male4 Livonia6:46 min/m
585Dylan Clayton21:34.821:31.21-919Male5 Canton6:56 min/m
62234Adam Stempin21:37.521:26.920-24220Male6 Canton6:55 min/m
779Brian Cech21:38.521:38.535-39236Male7 Ypsilanti6:58 min/m
82117Scott Stafford21:44.821:43.750-54154Male8 Northville7:00 min/m
92174Matthew Apostle22:28.322:25.710-14113Male9 Dearborn7:14 min/m
10222Keith Klobucar22:30.322:26.955-59155Male10 Dryden7:14 min/m
112035Bob Offman22:50.322:45.650-54251Male11 New Boston7:20 min/m
122268Zach Peterson22:53.122:44.510-14214Male12  7:20 min/m
132133Michael Thomas22:58.622:54.710-14313Male13 South Lyon7:23 min/m
1473Lewis Campbell23:55.823:48.215-19116Male14 Plymouth7:40 min/m
1539John Bilicki24:18.324:13.950-54351Male15 Livonia7:49 min/m
162097Jimmy Sharkey24:19.324:18.125-29226Male16 Westland7:50 min/m
172265Conner Peterson24:25.324:18.410-14412Male17  7:50 min/m
18197Alex Hylenski24:26.623:22.025-29126Male18 Royal Oak7:32 min/m
192257Elijah Yount24:27.724:13.41-929Male19  7:48 min/m
20247Tony Lyssiotis24:30.324:22.525-29328Male20Wayne/Westland Fire DepartmentWestland7:51 min/m
212092Elizabeth Schweers24:31.824:07.4Overall144Female1 Belleville7:46 min/m
22108Andy Dent24:36.824:24.045-49149Male21 Fort Wayne7:52 min/m
23156Joe Gatzek24:42.824:40.945-49248Male22 Plymouth7:57 min/m
2466Albert Burns24:44.324:31.140-44141Male23 Dearborn Hts7:54 min/m
252080Jason Ryska24:51.124:38.540-44242Male24 Milford7:56 min/m
26155Gabe Gatzek24:54.124:52.015-19215Male25 Plymouth8:01 min/m
272214Kyle Lewis24:55.524:46.720-24322Male26Northville Township Fire DepartmentTroy7:59 min/m
2815Michelle Avey25:08.825:07.050-54150Female2 Livonia8:06 min/m
29159Marc Gerstenberger25:18.525:16.745-49446Male27 Leonard8:09 min/m
302292Emily Brewer25:21.325:14.310-14112Female3  8:08 min/m
312135Izuru Tokuyama25:25.225:14.245-49346Male28 Saline8:08 min/m
322019Mike Melville25:30.724:59.035-39435Male29 Plymouth8:03 min/m
332016Andrew Mcinnes25:34.625:24.930-34233Male30 Garden City8:11 min/m
342232Brent Siegel25:34.725:25.230-34333Male31Northville Township Fire DepartmentWixom8:12 min/m
352219Jesse Marcotte25:35.825:29.330-34430Male32Northville Township Fire DepartmentBelleville8:13 min/m
362166Scott Williams25:36.325:23.745-49549Male33 Dearborn8:11 min/m
372170Brian Wolf25:43.124:45.835-39337Male34Wayne/Westland Fire DepartmentShelby Twp7:59 min/m
38170Eddy Gurney26:03.525:23.140-44343Male35 Canton8:11 min/m
39151Corey Garbutt26:08.824:56.825-29428Male36 Livonia8:02 min/m
40130Sheryl Felice26:09.826:01.645-49149Female4 Belleville8:23 min/m
41123Stephen Ellis26:24.225:27.645-49649Male37 Northville8:12 min/m
422235Sarah Stempin26:25.426:14.720-24122Female5 Canton8:27 min/m
432030Paige Nicholson26:26.825:51.035-39139Female6 Plymouth8:20 min/m
44166Trent Griffith26:32.126:17.510-14511Male38 Westland8:28 min/m
452150Kevin Wade26:36.626:16.930-34733Male39 Belleville8:28 min/m
462013Shince Mathew26:39.625:57.130-34531Male40 Plymouth8:22 min/m
47193Travis Hop26:42.826:11.330-34631Male41MIchigan State PoliceLivonia8:26 min/m
48218Thomas Kinnunen26:43.626:10.725-29527Male42MIchigan State PoliceIron Mountain8:26 min/m
49168Heather Gruenhagen26:46.826:33.535-39238Female7 Westland8:34 min/m
502206Bonnie Holben26:47.526:38.045-49246Female8 Redford8:35 min/m
Page 1 of 11 (515 items)
[1]234567891011

HyperLink Copyright (c) G Vincent, 2017